Dewpoint
68 68 68 67 67 69 68 69 69 68 69 68 65 65 64 65 65 64 64 64 65 67 67 67 66 65 64 63 63 62 60 60
68 68 68 67 67 67 68 68 68 68 68 67 65 64 65 65 65 65 64 64 65 66 67 66 65 64 63 62 62 61 58 58
68 68 68 68 68 68 68 68 67 67 66 66 64 64 65 65 64 64 64 64 65 66 66 65 64 63 62 61 60 58 57 56
66 67 68 68 67 68 68 67 67 66 65 65 64 64 64 63 62 63 63 65 65 66 65 64 63 62 61 60 58 57 56 55
65 67 67 67 66 67 68 68 67 66 65 65 64 63 62 60 59 62 63 62 62 64 64 62 61 60 59 58 56 57 53 53
65 66 66 66 66 66 67 66 66 66 65 65 63 62 61 59 59 58 61 61 61 64 63 61 60 59 58 57 56 53 52 51
64 65 65 65 65 65 65 65 65 65 64 64 63 61 60 58 57 60 63 64 63 63 62 61 60 58 57 56 55 53 52 50
63 63 64 64 64 63 64 64 64 64 64 63 62 60 60 60 60 62 62 62 63 62 61 60 58 56 56 55 54 53 52 50
62 63 63 63 62 62 64 63 64 64 63 62 62 61 61 61 61 61 62 62 63 62 60 59 56 55 55 55 54 52 50 50
62 62 62 63 62 61 61 63 63 63 63 63 62 61 62 61 61 62 62 61 62 61 59 56 55 54 54 53 51 50 51 51
61 62 62 62 61 61 61 62 62 62 63 62 62 61 61 61 61 62 61 60 61 60 59 55 54 53 53 52 51 51 52 51
60 61 62 61 60 60 60 61 61 61 61 61 61 61 61 62 62 62 61 59 59 59 57 55 54 52 51 51 52 52 52 51
60 61 61 61 60 59 59 59 60 60 60 60 61 61 61 61 61 61 60 58 58 58 57 55 54 53 51 52 52 52 53 52
60 60 61 60 58 58 58 58 59 58 58 59 60 60 60 61 61 60 59 58 57 57 57 55 54 53 51 51 50 52 53 53
59 60 60 59 57 58 58 58 58 58 58 59 60 60 60 60 60 60 59 58 56 56 57 55 53 53 51 49 48 46 50 52
58 59 59 59 58 57 56 54 54 55 58 59 59 59 60 60 60 59 59 58 56 56 57 55 53 52 52 51 47 44 46 48
58 58 58 58 58 56 55 54 54 56 59 58 58 57 58 58 59 58 58 58 57 56 56 55 54 53 51 51 51 50 48 44
58 57 57 58 58 56 55 54 54 55 58 57 57 57 57 56 56 57 57 57 57 57 56 55 54 53 53 53 51 51 48 47
56 56 56 58 57 55 55 55 54 55 58 57 57 56 56 56 55 55 55 56 56 56 55 54 54 54 54 53 52 51 50 49
55 56 56 57 56 55 55 54 55 55 56 57 57 57 56 57 56 56 55 56 56 56 55 54 54 55 54 54 54 52 52 50
Wind_Speed
13 17 18 17 17 16 17 16 17 18 17 17 18 18 19 16 10 9 8 6 16 22 23 23 21 21 19 19 16 14 16 14
13 15 15 16 16 17 16 15 14 13 14 10 17 18 22 21 19 18 15 15 15 22 22 23 21 21 21 20 15 8 14 14
14 14 15 13 15 15 17 14 12 12 14 19 17 15 19 21 19 22 22 22 24 21 22 22 21 20 21 20 20 11 11 10
13 13 15 15 12 11 16 17 15 16 15 18 17 17 19 21 21 23 26 24 26 25 23 25 25 20 17 20 15 11 8 8
13 11 13 15 13 11 9 7 9 14 19 17 15 17 18 17 17 14 17 23 22 18 20 23 21 18 18 16 10 11 7 7
16 14 13 14 11 11 10 9 9 11 16 19 15 14 17 18 14 16 12 14 21 19 18 20 20 20 19 15 11 10 9 8
18 16 15 12 11 10 9 11 12 14 17 18 16 16 18 18 15 15 14 13 20 22 22 20 19 18 15 14 13 9 10 8
21 19 17 15 16 11 11 11 13 15 16 18 19 16 16 16 15 14 13 12 21 23 21 20 19 17 16 14 13 11 13 11
23 21 19 16 15 13 11 10 12 14 15 17 17 14 17 17 15 15 17 18 15 17 18 19 19 16 16 14 12 12 13 11
22 20 20 17 15 13 11 10 11 12 14 14 19 17 13 12 13 15 19 17 18 16 19 20 19 17 16 14 11 12 13 13
24 23 22 19 15 13 12 10 10 9 10 12 16 16 16 16 19 15 20 17 20 15 17 20 19 18 16 14 13 12 13 13
24 23 22 19 14 13 11 10 11 9 9 9 12 14 17 18 14 18 19 19 17 15 17 19 19 19 17 15 13 11 12 11
25 25 24 20 17 16 13 13 11 9 11 13 16 14 16 17 13 19 19 21 23 21 17 23 19 19 18 12 11 10 10 12
26 26 26 22 19 16 11 12 9 12 13 16 17 18 20 20 14 21 24 21 22 22 22 22 20 22 21 17 11 8 10 12
27 27 26 23 19 16 12 10 6 10 12 12 10 11 17 20 22 14 27 25 25 25 24 25 22 23 23 16 10 9 16 15
25 26 26 23 22 19 18 15 13 13 10 8 8 9 15 19 23 23 17 21 24 24 23 23 22 24 20 18 15 11 20 11
25 25 25 24 23 19 17 15 12 9 8 10 7 5 6 11 17 22 22 18 24 25 24 24 21 21 23 20 15 10 15 12
22 24 25 25 23 19 17 17 13 11 10 10 10 8 8 9 10 15 18 16 20 21 23 21 19 19 18 18 17 16 15 12
22 26 26 25 23 19 16 17 14 13 12 10 13 10 9 11 11 10 14 16 17 16 18 18 18 18 19 16 15 16 12 12
23 25 26 25 21 18 16 15 13 12 13 11 10 9 12 15 12 13 12 14 16 15 14 13 14 16 19 18 16 16 14 12
Wind_Direction
168 183 186 188 191 197 194 190 188 188 197 198 186 183 168 145 162 147 133 215 169 149 143 140 138 135 133 136 145 169 146 139
176 178 185 193 198 197 204 201 196 193 190 166 157 147 150 164 156 164 161 190 175 156 149 141 140 136 134 139 147 172 157 153
176 175 180 189 196 197 199 208 196 185 160 154 156 171 172 167 170 173 182 170 169 159 151 139 138 137 140 146 156 172 156 154
195 186 182 187 193 191 206 206 205 203 183 171 177 176 180 175 181 184 180 172 167 158 153 146 155 158 159 159 182 161 175 169
213 195 193 193 188 190 187 183 189 194 184 170 182 183 182 194 189 198 180 181 175 156 161 167 169 164 164 179 165 170 161 176
192 193 196 197 189 190 191 173 176 178 194 182 175 188 192 195 186 196 190 182 170 171 182 172 173 164 169 182 167 184 169 166
193 187 192 186 194 184 176 177 182 185 190 187 183 190 191 189 194 197 177 178 170 178 175 172 173 165 169 170 171 170 162 168
193 187 192 195 203 189 180 179 186 188 190 190 188 182 189 194 201 192 173 175 183 173 171 168 171 165 169 170 168 164 173 167
195 184 185 199 203 199 190 182 187 183 187 190 186 199 190 199 205 188 166 170 161 173 176 171 168 170 167 168 166 168 169 170
191 186 183 190 200 199 196 176 188 189 188 183 189 193 196 204 201 192 168 165 170 176 181 174 171 169 167 167 167 170 167 166
188 187 183 183 197 195 197 175 187 178 179 188 195 195 200 206 208 185 163 159 175 161 192 177 173 171 167 167 167 168 170 181
186 187 182 175 180 180 185 177 189 180 187 190 187 194 199 206 197 175 162 163 164 168 184 189 176 171 169 168 172 165 175 181
186 183 180 170 180 175 181 195 188 194 203 209 209 200 201 207 201 178 164 168 170 174 182 180 175 171 165 147 163 170 185 184
186 184 177 181 184 178 181 187 198 207 214 217 218 214 213 202 202 193 172 169 171 171 185 179 178 176 169 160 164 176 197 205
187 183 181 179 179 165 180 173 182 204 221 223 226 228 221 212 207 200 171 167 171 175 187 178 170 181 181 184 168 190 176 192
185 182 180 176 170 172 185 193 195 208 209 202 208 231 230 218 193 179 181 166 170 177 189 181 179 180 189 203 203 201 185 180
184 178 178 173 172 182 184 196 196 202 182 176 173 158 173 172 177 172 170 171 171 177 186 188 181 182 186 190 207 188 201 207
172 173 173 171 175 182 187 190 188 194 171 169 166 168 162 140 139 167 155 157 160 178 181 185 179 191 188 190 200 191 199 200
165 168 168 168 180 179 187 191 185 193 165 156 155 159 150 148 149 146 152 152 156 164 177 183 188 192 190 195 195 202 189 201
167 168 163 166 177 174 180 195 175 187 182 177 173 169 169 162 159 162 162 149 158 161 173 189 198 200 198 200 202 211 219 206